Regional Weather Roundup
Issued by NWS San Angelo, TX

Home | Current Version | Previous Version | Text Only | Print | Product List | Glossary On
Versions: 1 2 3 4 5 6 7 8 9 10 11 12 13 14 15 16 17 18 19 20 21 22 23 24 25 26 27 28 29 30 31 32 33 34 35 36 37 38 39 40 41 42 43 44 45 46 47 48 49 50
000
ASUS44 KSJT 180902
RWRSJT
WEST CENTRAL TEXAS REGIONAL WEATHER ROUNDUP
NATIONAL WEATHER SERVICE SAN ANGELO TX
400 AM CDT FRI APR 18 2014

NOTE: "FAIR" INDICATES FEW OR NO CLOUDS BELOW 12,000 FEET WITH NO
SIGNIFICANT WEATHER AND/OR OBSTRUCTIONS TO VISIBILITY.

TXZ049-054-064>066-071>073-076>078-098-099-113-114-127-128-139-140-
154-155-168>170-181000
...LOCATIONS ACROSS WEST CENTRAL TEXAS...

CITY           SKY/WX    TMP DP  RH WIND       PRES   REMARKS
SAN ANGELO     CLOUDY    57  53  86 E3        30.19F
ABILENE        CLOUDY    52  49  89 NW7       30.22S FOG
DYESS AFB      CLOUDY    52  50  93 N7        30.21S
JUNCTION       CLOUDY    61  56  83 E5        30.17F
SWEETWATER     NOT AVBL
BROWNWOOD      CLOUDY    57  57 100 E3        30.19S FOG
COLEMAN        NOT AVBL
SONORA         NOT AVBL
OZONA          NOT AVBL
BRADY          NOT AVBL
$$

TEXAS PANHANDLE/OKLAHOMA PANHANDLE

CITY           SKY/WX    TMP DP  RH WIND       PRES   REMARKS
AMARILLO       MOCLDY    39  34  82 S9        30.24R WCI  33
BORGER         PTCLDY    44  38  79 S9        30.23S WCI  39
CANADIAN       NOT AVBL
DALHART        CLEAR     33  30  88 S8        30.22R FOG     WCI  26
DUMAS          NOT AVBL
GUYMON         NOT AVBL
HEREFORD       NOT AVBL
PAMPA          NOT AVBL
PERRYTON       NOT AVBL
$$

SOUTHERN PANHANDLE/SOUTH PLAINS/ROLLING PLAINS

CITY           SKY/WX    TMP DP  RH WIND       PRES   REMARKS
LUBBOCK        CLOUDY    44  36  73 E6        30.23S
SNYDER         NOT AVBL
CHILDRESS      CLOUDY    48  45  89 NW5       30.24S
SEMINOLE       NOT AVBL
$$

PERMIAN BASIN

CITY           SKY/WX    TMP DP  RH WIND       PRES   REMARKS
MIDLAND        CLOUDY    51  47  86 NE12      30.20F
ODESSA         CLOUDY    52  47  83 E10       30.20F
WINK           CLOUDY    52  46  80 E8        30.18S
$$

FAR WEST/SOUTHWEST MOUNTAINS/TRANS PECOS

CITY           SKY/WX    TMP DP  RH WIND       PRES   REMARKS
ALPINE         NOT AVBL
DRYDEN           N/A     63  57  81 E15G24    30.13S
EL PASO        MOCLDY    61  30  31 CALM      30.09F
FORT STOCKTON  PTCLDY    54  50  86 E8        30.16F
GUADALUPE PASS MOCLDY    48  43  82 NE33      30.17F WCI  39
MARFA          PTCLDY    45  34  65 N7        30.19S
PECOS          PTSUNNY   52  46  80 NE9       30.17F
$$

DALLAS/FORT WORTH METROPLEX

CITY           SKY/WX    TMP DP  RH WIND       PRES   REMARKS
DFW AIRPORT    CLOUDY    56  53  90 N6        30.18S FOG
FTW MEACHAM    CLOUDY    56  54  93 CALM      30.18S FOG
DAL-EXECUTIVE  CLOUDY    56  52  86 CALM      30.17S
GRAND PRAIRIE  NOT AVBL
ADDISON        NOT AVBL
MESQUITE       NOT AVBL
LANCASTER      NOT AVBL
$$

NORTH CENTRAL TEXAS

CITY           SKY/WX    TMP DP  RH WIND       PRES   REMARKS
SHRMAN/DENISON NOT AVBL
GAINESVILLE    NOT AVBL
BRIDGEPORT     NOT AVBL
DENTON         CLOUDY    55  54  96 N3        30.19S FOG
WAXAHACHIE     NOT AVBL
GRANBURY       NOT AVBL
$$

WESTERN NORTH TEXAS

CITY           SKY/WX    TMP DP  RH WIND       PRES   REMARKS
WICHITA FALLS  CLOUDY    54  51  90 NE5       30.21F
VERNON         NOT AVBL
BRECKENRIDGE   CLOUDY    58  55  88 SE5       30.20R
COMANCHE       NOT AVBL
$$

CENTRAL AND SOUTH CENTRAL TEXAS

CITY           SKY/WX    TMP DP  RH WIND       PRES   REMARKS
AUSTIN/BERGSTM CLOUDY    60  58  92 CALM      30.16S FOG
WACO           LGT RAIN  58  56  93 CALM      30.17S FOG
HILLSBORO      NOT AVBL
TEMPLE         CLOUDY    57  54  88 N3        30.20S
KILLEEN-GRAY   NOT AVBL
FORT HOOD      NOT AVBL
GEORGETOWN     CLOUDY    61  57  88 CALM      30.17S
LAGO VISTA     NOT AVBL
SAN MARCOS     CLOUDY    61  55  82 CALM      30.17S
NEW BRAUNFELS  CLOUDY    61  61 100 N3        30.14F FOG
RANDOLPH AFB   MOCLDY    60  59  96 N3        30.15F FOG
SAN ANTONIO    CLOUDY    62  60  93 CALM      30.16S FOG
STINSON        CLOUDY    64  61  90 N3        30.13F
PLEASANTON     NOT AVBL
LA GRANGE      NOT AVBL
GIDDINGS       NOT AVBL
$$

EAST TEXAS

CITY           SKY/WX    TMP DP  RH WIND       PRES   REMARKS
PARIS          FAIR      52  45  76 N7        30.20R
CLARKSVILLE    SUNNY     53  46  78 CALM      30.19S
TYLER          CLOUDY    56  50  80 CALM      30.17S
LONGVIEW       CLOUDY    55  51  86 CALM      30.17R
PALESTINE      NOT AVBL
NACOGDOCHES    CLOUDY    54  50  87 CALM      30.16S
$$

TEXAS HILL COUNTRY AND EDWARDS PLATEAU

CITY           SKY/WX    TMP DP  RH WIND       PRES   REMARKS
LLANO          NOT AVBL
HORSESHOE BAY  NOT AVBL
KERRVILLE      NOT AVBL
FREDERICKSBRG  NOT AVBL
ROCKSPRINGS    NOT AVBL
HONDO          CLOUDY    65  59  81 E6        30.17S
UVALDE         NOT AVBL
DEL RIO        CLOUDY    66  59  78 SE10      30.13S
$$

SOUTHEAST TEXAS

CITY           SKY/WX    TMP DP  RH WIND       PRES   REMARKS
COLLEGE STN    CLOUDY    60  59  96 NW3       30.15S FOG
CALDWELL       NOT AVBL
CROCKETT       NOT AVBL
BRENHAM        NOT AVBL
HUNTSVILLE     MOCLDY    57  54  89 CALM      30.15R
CONROE         CLOUDY    56  54  93 CALM      30.14S
HOUSTON BUSH   CLOUDY    60  54  80 N5        30.13R
HOUSTON HOBBY  MOCLDY    61  54  77 N7        30.12R
PERLAND        CLOUDY    60  54  80 CALM      30.14R
WHARTON        NOT AVBL
$$

THE UPPER TEXAS COAST

CITY           SKY/WX    TMP DP  RH WIND       PRES   REMARKS
ORANGE         NOT AVBL
PORT ARTHUR    PTCLDY    56  52  86 N6        30.10F
GALVESTON      CLOUDY    61  57  87 NE8       30.11S
ANGLETON       NOT AVBL
BAY CITY       NOT AVBL
$$

TEXAS COASTAL BEND, RIO GRANDE PLAINS DEEP SOUTH TEXAS

CITY           SKY/WX    TMP DP  RH WIND       PRES   REMARKS
VICTORIA       CLOUDY    61  59  93 N3        30.13S
BEEVILLE       NOT AVBL
ROCKPORT       CLOUDY    64  62  93 N8        30.11S
PORT ARANSAS   NOT AVBL
PORT LAVACA    CLOUDY    62  59  89 N7        30.13R
CORPUS CHRISTI CLOUDY    67  62  84 NE9       30.10F
KINGSVILLE NAS CLOUDY    66  64  93 NE7       30.10S
COTULLA        CLOUDY    64  59  83 E6        30.13F
LAREDO         CLOUDY    67  61  81 E8        30.14S
BROWNSVILLE    CLOUDY    69  67  93 NE6       30.05F
PORT ISABEL    CLOUDY    69  66  90 NE7       30.05F
HEBBRONVILLE   NOT AVBL
MCALLEN        CLOUDY    68  66  93 NE6       30.08S
WESLACO        NOT AVBL
FALFURRIAS     NOT AVBL
EDINBURG       NOT AVBL
$$



USA.gov is the U.S. government's official web portal to all federal, state and local government web resources and services.